Date String (YYYY-MM-DD hh:mm:ss) UTC,Instrument flags,Ambient pressure (hPa),Sample flow (lpm),Bypass flow (lpm),Sample temperature (°C),Ambient temperature (°C),ASC tube jacket temperature (°C),LED temperature (°C),Box temperature (°C),Sample RH (%),Span deviation,Mass concentration (μg/m³),Mass concentration (μg/m³),Mass concentration (μg/m³)
DateTimeUTC,F1_M11,P_M11,Q1_M11,Q2_M11,T1_M11,T2_M11,T3_M11,T4_M11,T5_M11,U1_M11,ZSPAN_M11,X0_M11,X2_M11,X1_M11
2022-10-13 15:00:00,,0831.7,5.01,0.00,26.1,24.9,00.0,34.9,28.2,17.7,0000.0,0011.34,0005.03,0004.25
2022-10-13 15:01:00,,0831.7,4.98,0.00,26.2,24.9,00.0,34.9,28.2,17.6,0000.0,0011.32,0005.00,0004.24
2022-10-13 15:02:00,,0831.7,5.01,0.00,26.2,24.9,00.0,34.9,28.2,17.6,0000.0,0011.70,0005.01,0004.24
2022-10-13 15:03:00,,0831.7,5.01,0.00,26.2,24.9,00.0,34.9,28.2,17.7,0000.0,0012.53,0005.04,0004.24
2022-10-13 15:04:00,,0831.7,5.01,0.00,26.2,24.9,00.0,34.9,28.2,17.7,0000.0,0012.74,0005.07,0004.24
2022-10-13 15:05:00,,0831.8,4.99,0.00,26.2,24.9,00.0,34.9,28.2,17.4,0000.0,0012.88,0005.09,0004.23
2022-10-13 15:06:00,,0831.7,4.99,0.00,26.2,25.0,00.0,34.9,28.2,17.5,0000.0,0013.92,0005.14,0004.23
2022-10-13 15:07:00,,0831.7,5.01,0.00,26.2,25.0,00.0,34.9,28.3,17.6,0000.0,0013.45,0005.10,0004.22
2022-10-13 15:08:00,,0831.7,5.01,0.00,26.2,25.0,00.0,35.0,28.3,18.1,0000.0,0013.14,0005.09,0004.21
2022-10-13 15:09:00,,0831.7,5.00,0.00,26.3,25.0,00.0,35.0,28.3,17.7,0000.0,0012.71,0005.13,0004.21
2022-10-13 15:10:00,,0831.7,4.98,0.00,26.3,25.0,00.0,35.0,28.3,17.5,0000.0,0012.47,0005.17,0004.23
2022-10-13 15:11:00,,0831.7,5.00,0.00,26.3,25.0,00.0,35.0,28.3,17.6,0000.0,0012.89,0005.19,0004.23
2022-10-13 15:12:00,,0831.8,5.01,0.00,26.3,25.1,00.0,35.0,28.3,17.7,0000.0,0013.09,0005.23,0004.24
2022-10-13 15:13:00,,0831.8,5.01,0.00,26.3,25.1,00.0,35.0,28.3,17.5,0000.0,0013.00,0005.27,0004.24
2022-10-13 15:14:00,,0831.9,5.01,0.00,26.3,25.1,00.0,35.0,28.4,17.7,0000.0,0012.39,0005.30,0004.25
2022-10-13 15:15:00,,0831.9,5.00,0.00,26.3,25.1,00.0,35.0,28.4,18.0,0000.0,0012.19,0005.28,0004.25
2022-10-13 15:16:00,,0831.9,4.99,0.00,26.4,25.1,00.0,35.0,28.3,18.0,0000.0,0012.36,0005.25,0004.25
2022-10-13 15:17:00,,0831.9,5.01,0.00,26.4,25.1,00.0,35.1,28.3,18.2,0000.0,0012.05,0005.23,0004.26
2022-10-13 15:18:00,,0831.9,5.01,0.00,26.4,25.2,00.0,35.1,28.4,18.2,0000.0,0012.12,0005.24,0004.26
2022-10-13 15:19:00,,0831.9,4.99,0.00,26.4,25.2,00.0,35.1,28.4,18.0,0000.0,0012.24,0005.26,0004.28
2022-10-13 15:20:00,,0831.9,5.00,0.00,26.4,25.2,00.0,35.1,28.4,18.2,0000.0,0012.39,0005.27,0004.30
2022-10-13 15:21:00,,0832.0,5.00,0.00,26.4,25.2,00.0,35.1,28.4,18.1,0000.0,0012.55,0005.30,0004.30
2022-10-13 15:22:00,,0832.0,5.00,0.00,26.4,25.2,00.0,35.1,28.4,18.2,0000.0,0012.52,0005.29,0004.31
2022-10-13 15:23:00,,0831.9,4.98,0.00,26.5,25.2,00.0,35.1,28.4,18.4,0000.0,0012.68,0005.30,0004.31
2022-10-13 15:24:00,,0832.0,5.00,0.00,26.5,25.2,00.0,35.2,28.5,18.3,0000.0,0012.60,0005.29,0004.32
2022-10-13 15:25:00,,0831.9,5.00,0.00,26.5,25.3,00.0,35.2,28.5,18.3,0000.0,0013.77,0005.32,0004.33
2022-10-13 15:26:00,,0831.9,5.01,0.00,26.5,25.3,00.0,35.2,28.5,18.2,0000.0,0014.01,0005.29,0004.33
2022-10-13 15:27:00,,0831.9,4.98,0.00,26.5,25.3,00.0,35.2,28.5,18.0,0000.0,0013.96,0005.33,0004.35
2022-10-13 15:28:00,,0832.0,5.00,0.00,26.5,25.3,00.0,35.2,28.5,17.7,0000.0,0013.31,0005.34,0004.35
2022-10-13 15:29:00,,0832.0,5.01,0.00,26.5,25.3,00.0,35.2,28.5,17.8,0000.0,0013.70,0005.34,0004.35
2022-10-13 15:30:00,,0832.0,5.00,0.00,26.6,25.4,00.0,35.3,28.6,17.9,0000.0,0014.50,0005.39,0004.35
2022-10-13 15:31:00,,0832.0,5.01,0.00,26.6,25.4,00.0,35.3,28.6,18.3,0000.0,0014.73,0005.36,0004.35
2022-10-13 15:32:00,,0831.9,4.99,0.00,26.6,25.4,00.0,35.3,28.6,18.4,0000.0,0014.49,0005.30,0004.35
2022-10-13 15:33:00,,0831.9,4.99,0.00,26.6,25.4,00.0,35.3,28.6,18.4,0000.0,0014.24,0005.26,0004.33
2022-10-13 15:34:00,,0831.9,5.00,0.00,26.6,25.4,00.0,35.3,28.6,18.4,0000.0,0014.95,0005.21,0004.33
2022-10-13 15:35:00,,0831.9,5.01,0.00,26.6,25.5,00.0,35.3,28.6,18.2,0000.0,0015.88,0005.18,0004.33
2022-10-13 15:36:00,,0832.0,5.00,0.00,26.7,25.5,00.0,35.3,28.7,18.2,0000.0,0015.15,0005.18,0004.33
2022-10-13 15:37:00,,0831.9,5.00,0.00,26.7,25.5,00.0,35.4,28.7,18.1,0000.0,0015.46,0005.26,0004.35
2022-10-13 15:38:00,,0832.0,5.00,0.00,26.7,25.5,00.0,35.4,28.7,18.2,0000.0,0015.98,0005.24,0004.35
2022-10-13 15:39:00,,0832.0,5.00,0.00,26.7,25.5,00.0,35.4,28.7,18.1,0000.0,0016.65,0005.23,0004.35
2022-10-13 15:40:00,,0832.0,4.98,0.00,26.7,25.5,00.0,35.4,28.7,17.9,0000.0,0016.07,0005.25,0004.36
2022-10-13 15:41:00,,0832.0,5.00,0.00,26.7,25.5,00.0,35.4,28.7,17.5,0000.0,0015.19,0005.24,0004.36
2022-10-13 15:42:00,,0832.0,5.00,0.00,26.7,25.5,00.0,35.4,28.7,17.3,0000.0,0014.84,0005.25,0004.36
2022-10-13 15:43:00,,0832.0,5.00,0.00,26.8,25.6,00.0,35.4,28.7,17.0,0000.0,0014.88,0005.26,0004.37
2022-10-13 15:44:00,,0832.0,5.00,0.00,26.8,25.6,00.0,35.5,28.8,17.0,0000.0,0014.78,0005.27,0004.39
2022-10-13 15:45:00,,0832.0,5.00,0.00,26.8,25.6,00.0,35.5,28.8,17.3,0000.0,0013.69,0005.28,0004.39
2022-10-13 15:46:00,,0831.9,5.00,0.00,26.8,25.6,00.0,35.5,28.8,17.4,0000.0,0012.45,0005.26,0004.38
2022-10-13 15:47:00,,0832.0,5.01,0.00,26.8,25.6,00.0,35.5,28.8,17.4,0000.0,0012.18,0005.25,0004.38
2022-10-13 15:48:00,,0832.0,5.01,0.00,26.8,25.6,00.0,35.5,28.8,17.2,0000.0,0011.95,0005.20,0004.38
2022-10-13 15:49:00,,0832.0,5.01,0.00,26.9,25.6,00.0,35.5,28.8,17.0,0000.0,0010.97,0005.15,0004.38
2022-10-13 15:50:00,,0832.0,5.00,0.00,26.9,25.7,00.0,35.5,28.9,17.0,0000.0,0010.50,0005.15,0004.38
2022-10-13 15:51:00,,0832.0,4.99,0.00,26.9,25.7,00.0,35.6,28.9,17.0,0000.0,0010.64,0005.14,0004.38
2022-10-13 15:52:00,,0831.9,5.00,0.00,26.9,25.7,00.0,35.6,28.9,16.7,0000.0,0010.85,0005.10,0004.38
2022-10-13 15:53:00,,0832.0,5.01,0.00,26.9,25.7,00.0,35.6,28.9,16.8,0000.0,0011.10,0005.09,0004.39
2022-10-13 15:54:00,,0831.9,5.00,0.00,26.9,25.8,00.0,35.6,28.9,16.9,0000.0,0011.82,0005.15,0004.39
2022-10-13 15:55:00,,0832.0,5.00,0.00,26.9,25.8,00.0,35.6,29.0,16.8,0000.0,0012.05,0005.15,0004.39
2022-10-13 15:56:00,,0832.0,5.01,0.00,27.0,25.8,00.0,35.6,29.0,16.9,0000.0,0012.11,0005.18,0004.40
2022-10-13 15:57:00,,0831.9,5.00,0.00,27.0,25.8,00.0,35.7,29.0,17.1,0000.0,0012.44,0005.20,0004.40
2022-10-13 15:58:00,,0831.9,5.00,0.00,27.0,25.8,00.0,35.7,29.0,17.3,0000.0,0012.46,0005.22,0004.41
2022-10-13 15:59:00,,0831.9,5.00,0.00,27.0,25.8,00.0,35.7,29.0,17.2,0000.0,0012.04,0005.24,0004.42
